User: anonymous   Login
Location: Glencliff
(36.1226°N, 86.7183°W)
Time: 00:16:06
(UTC+00:00)
Language:

Meteor 1-13 Rocket - Orbit

View from above orbital plane
View from above orbital plane
View from above satellite
View from above satellite

Ground track
Ground track

The orbit data is extracted from the following two-line orbital elements,

1  6257U 72085B   19288.69802021 +.00000053 +00000-0 +24491-4 0  9990
2  6257 081.2604 057.6592 0056091 255.9528 103.5402 14.06441723408777
Epoch (UTC): 15 October 2019 16:45:08
Eccentricity: 0.0056091
inclination: 81.2604°
perigee height: 831 km
apogee height: 912 km
right ascension of ascending node: 57.6592°
argument of perigee: 255.9528°
revolutions per day: 14.06441723
mean anomaly at epoch: 103.5402°
orbit number at epoch: 40877

The dashed part of the orbit path shows where the satellite is in the earth's shadow,  

DLR